Date,TemperatureHighF,TemperatureAvgF,TemperatureLowF,DewpointHighF,DewpointAvgF,DewpointLowF,HumidityHigh,HumidityAvg,HumidityLow,PressureMaxIn,PressureMinIn,WindSpeedMaxMPH,WindSpeedAvgMPH,GustSpeedMaxMPH,PrecipitationSumIn
2013-9-1,106,89,75,69,62,56,61,43,22,29.81,29.67,24,5,28,0.00
2013-9-2,97,84,72,73,65,58,81,56,32,29.92,29.78,16,5,21,0.00
2013-9-3,97,82,64,62,57,49,79,46,21,29.98,29.84,18,5,19,0.00
2013-9-4,98,83,64,64,56,38,79,45,13,30.02,29.89,18,4,20,0.00
2013-9-5,101,87,72,67,61,54,73,46,23,30.02,29.88,13,5,16,0.00
2013-9-6,101,88,72,66,62,59,67,44,27,29.98,29.82,17,4,18,0.00
2013-9-7,102,87,71,64,62,59,73,47,26,29.91,29.77,23,4,23,0.00
2013-9-8,98,86,71,68,61,55,74,46,25,29.87,29.73,21,5,22,0.00
2013-9-9,95,85,73,67,63,59,74,50,33,29.87,29.75,23,8,25,0.00
2013-9-10,93,82,73,70,66,62,78,58,39,29.98,29.83,23,8,26,0.08
2013-9-11,93,83,72,69,65,59,83,57,34,30.03,29.90,19,6,20,0.00
2013-9-12,96,83,68,66,62,59,78,51,30,30.01,29.84,16,3,17,0.00
2013-9-13,90,79,72,71,68,65,83,70,49,29.92,29.80,23,6,25,0.00
2013-9-14,93,80,72,70,67,64,87,68,40,29.91,29.77,19,5,19,0.00
2013-9-15,95,84,73,66,64,61,74,53,36,29.91,29.81,19,6,24,0.00
2013-9-16,92,80,70,70,67,64,93,67,42,30.02,29.87,26,7,28,0.27
2013-9-17,88,76,70,75,70,67,92,84,54,30.00,29.87,20,3,20,0.16
2013-9-18,94,83,75,70,66,60,81,58,33,29.90,29.73,26,8,27,0.00
2013-9-19,86,76,72,72,67,60,91,75,52,29.90,29.77,19,5,20,0.05
2013-9-20,72,67,60,69,62,55,91,83,65,29.99,29.80,23,9,24,0.18
2013-9-21,82,67,52,57,52,46,92,64,31,30.03,29.85,11,2,12,0.00
2013-9-22,84,70,54,55,52,49,90,57,31,29.88,29.71,17,4,20,0.00
2013-9-23,88,73,56,55,53,51,86,54,31,29.76,29.62,26,9,27,0.00
2013-9-24,90,76,61,56,50,43,77,44,20,29.95,29.76,18,5,20,0.00
2013-9-25,94,76,56,61,54,49,83,51,25,29.84,29.62,21,6,23,0.00
2013-9-26,96,82,70,62,60,53,72,50,28,29.72,29.63,28,11,30,0.00
2013-9-27,91,79,69,71,65,53,79,62,44,29.78,29.63,28,11,29,0.00
2013-9-28,80,69,57,72,58,45,93,69,35,30.08,29.68,25,9,26,0.77
2013-9-29,81,64,50,56,48,38,92,63,23,30.09,29.87,10,2,10,0.00
2013-9-30,88,72,57,61,54,50,80,57,35,29.89,29.67,24,8,24,0.00